Overview Statistics Trail Chart Weather Telemetry Raw packets
 

This is the latest recevied weather packets stored in our database for station/object KA1JKB. If no packets are shown the sender has not sent any weather packets the latest 10 day(s).

<< 92 93 94 95 96 97 98 >>
Time Temp. Humidity Pressure Rain* Wind** Luminosity Snow
1787760310 23.33° C 75% 1012.4 hPa 0 mm - 220 W/m² -
1787760010 23.89° C 74% 1012.5 hPa 0 mm - 260 W/m² -
1787759708 24.44° C 73% 1012.5 hPa 0 mm - 400 W/m² -
1787759404 23.89° C 74% 1012.7 hPa 0 mm - 841 W/m² -
1787759099 23.33° C 75% 1012.6 hPa 0 mm - 557 W/m² -
1787758798 23.33° C 75% 1012.6 hPa 0 mm - 394 W/m² -
1787758494 23.33° C 73% 1012.5 hPa 0 mm - 248 W/m² -
1787758192 23.33° C 75% 1012.4 hPa 0 mm - 293 W/m² -
1787757888 23.33° C 74% 1012.6 hPa 0 mm - 333 W/m² -
1787757584 23.33° C 75% 1012.6 hPa 0 mm - 378 W/m² -
1787757283 22.78° C 74% 1012.4 hPa 0 mm - 394 W/m² -
1787756982 22.78° C 74% 1012.6 hPa 0 mm - 288 W/m² -
1787756678 23.89° C 74% 1012.2 hPa 0 mm - 451 W/m² -
1787756377 23.33° C 75% 1012.5 hPa 0 mm - 466 W/m² -
1787756072 23.33° C 76% 1012.6 hPa 0 mm - 312 W/m² -
1787755767 23.33° C 75% 1012.5 hPa 0 mm - 695 W/m² -
1787755462 23.33° C 75% 1012.5 hPa 0 mm - 699 W/m² -
1787755162 22.78° C 75% 1012.7 hPa 0 mm - 693 W/m² -
1787754861 22.78° C 76% 1012.7 hPa 0 mm - 624 W/m² -
1787754560 22.22° C 75% 1012.7 hPa 0 mm - 583 W/m² -
1787754259 22.78° C 74% 1012.9 hPa 0 mm - 580 W/m² -
1787753954 22.22° C 78% 1012.9 hPa 0 mm - 560 W/m² -
1787753653 22.22° C 77% 1012.8 hPa 0 mm - 537 W/m² -
1787753352 21.67° C 80% 1013.3 hPa 0 mm - 519 W/m² -
1787753047 21.11° C 80% 1012.9 hPa 0 mm - 518 W/m² -

* Rain latest hour (hover to see other rain measurements)
** Current wind speed in m/s (hover to see current wind gust speed)